Tracking 28790 objects as of 18-Apr-2024
HD Live streaming from Space Station
objects crossing your sky now

HIBER-4

Track HIBER-4 now!
10-day predictions


NORAD ID: 47541
Int'l Code: 2021-006EB
Perigee: 427.2 km
Apogee: 435.0 km
Inclination: 97.3 °
Period: 93.1 minutes
Semi major axis: 6802 km
RCS: Unknown
Launch date: January 24, 2021
Source: Netherlands (NETH)
Launch site: AIR FORCE EASTERN TEST RANGE (AFETR)
Your satellite tracking list
Your tracking list is empty




NASA's NSSDC Master Catalog

Two Line Element Set (TLE):
1 47541U 21006EB  24109.10354116  .00100056  00000-0  19249-2 0  9996
2 47541  97.3296 170.0987 0005766  86.9652 273.2258 15.47529988179555
Source of the keplerian elements: AFSPC